Regional Weather Roundup
Issued by NWS

Home | Current Version | Previous Version | Text Only | Print | Product List | Glossary On
Versions: 1 2 3 4 5 6 7 8 9 10 11 12 13 14 15 16 17 18 19 20 21 22 23 24 25 26 27 28 29 30 31 32 33 34 35 36 37 38 39 40 41 42 43 44 45 46 47 48 49 50
000
ASUS43 KLMK 070610
RWRKY
KENTUCKY REGIONAL WEATHER ROUNDUP
NATIONAL WEATHER SERVICE LOUISVILLE KY
200 AM EDT TUE JUL 07 2015

NOTE "FAIR" INDICATES FEW OR NO CLOUDS BELOW 12,000 FEET
WITH NO SIGNIFICANT WEATHER AND/OR OBSTRUCTIONS TO VISIBILITY.

KYZ001>023-026-027-061>063-070>075-070700-
WESTERN AND SOUTH CENTRAL KENTUCKY

CITY           SKY/WX    TMP DP  RH WIND       PRES   REMARKS
PADUCAH        CLOUDY    78  72  81 SW9G21    29.98F
HENDERSON      MOCLDY    75  72  88 SW8       29.97S
OWENSBORO      CLEAR     76  74  93 S8        30.00S
HOPKINSVILLE   CLEAR     75  73  92 SW9       30.03F
BOWLING GREEN  MOCLDY    77  71  82 SW7       30.05S
GLASGOW        CLEAR     74  70  88 S3        30.05S
$$

KYZ024-025-028>034-038-045-046-053-070700-
NORTH CENTRAL KENTUCKY

CITY           SKY/WX    TMP DP  RH WIND       PRES   REMARKS
LOUISVILLE/SDF MOCLDY    79  70  74 S8        29.99F
LOUISVILLE/LOU PTCLDY    76  70  82 S5        30.01S
FORT KNOX      PTCLDY    73  70  90 S3        30.00F
$$

KYZ035>037-039>044-047>052-055>060-089>105-070700-
NORTHEAST KENTUCKY

CITY           SKY/WX    TMP DP  RH WIND       PRES   REMARKS
LEXINGTON      CLEAR     73  69  87 S8        30.04F
COVINGTON      PTCLDY    72  69  90 S7        30.00F
FRANKFORT      PTCLDY    73  68  84 SW7       30.02F
$$

KYZ054-064>069-076>088-106>120-070700-
SOUTHEAST KENTUCKY

CITY           SKY/WX    TMP DP  RH WIND       PRES   REMARKS
JACKSON        CLEAR     69  67  93 CALM      30.09F FOG
LONDON         CLEAR     69  65  86 CALM      30.10F FOG
SOMERSET       CLEAR     68  68 100 S3        30.09F FOG
MIDDLESBORO    PTCLDY    67  67  99 CALM      30.12F FOG
MONTICELLO     PTCLDY    69  69 100 CALM      30.11F FOG
$$




USA.gov is the U.S. government's official web portal to all federal, state and local government web resources and services.